Regional Weather Roundup
Issued by NWS

Home | Current Version | Previous Version | Graphics & Text | Print | Product List | Glossary On
Versions: 1 2 3 4 5 6 7 8 9 10 11 12 13 14 15 16 17 18 19 20 21 22 23 24 25 26 27 28 29 30 31 32 33 34 35 36 37 38 39 40 41 42 43 44 45 46 47 48 49 50
000
ASUS45 KSLC 230910
RWRUT

UTAH REGIONAL WEATHER ROUNDUP
NATIONAL WEATHER SERVICE SALT LAKE CITY UT
300 AM MDT WED MAY 23 2018

UTZ001>011-023>025-231000-

NORTHERN UTAH

CITY           SKY/WX    TMP DP  RH WIND       PRES   REMARKS
BRIGHAM CITY   CLOUDY    57  47  70 CALM      29.94S
HILL AFB       MOCLDY    53  42  66 E14       29.94S
LOGAN          CLOUDY    53  47  79 N5        29.94F
OGDEN          CLOUDY    53  42  66 S8        29.93S
SALT LAKE CITY PTCLDY    56  47  71 S8        29.92S
TOOELE VALLEY  PTCLDY    50  45  81 S13       29.93S
WENDOVER       CLEAR     54  46  74 CALM      29.92S
HEBER CITY       N/A     37  37 100 CALM      30.00S
WEST JORDAN    PTCLDY    49  47  93 S8        29.94F

$$

UTZ011>015-024>027-231000-

CENTRAL/NORTHEAST UTAH

CITY           SKY/WX    TMP DP  RH WIND       PRES   REMARKS
PROVO AIRPORT  PTCLDY    51  44  77 S6        29.96F
MOAB/CANYONLAN CLEAR     52  42  69 CALM      29.92S
DELTA          PTCLDY    45  41  87 NE6       29.96R
PRICE          PTCLDY    50  34  54 N9        29.98F
ROOSEVELT      CLEAR     45  37  76 SW7       30.02S
VERNAL         CLEAR     47  38  71 CALM      29.99F

$$

UTZ013>016-019>022-027-231000-

SOUTHERN UTAH

CITY           SKY/WX    TMP DP  RH WIND       PRES   REMARKS
BRYCE CANYON   CLOUDY    38  37  97 NW5       30.10R WCI  34
CEDAR CITY     MOCLDY    47  37  68 CALM      29.99S
MILFORD        PTCLDY    41  40  96 SW3       29.96S
ST GEORGE      PTSUNNY   65  41  41 CALM      29.89R
HANKSVILLE     PTCLDY    50  28  43 CALM      29.95S
BLANDING         N/A     51  23  33 N6        30.06S

$$

REGIONAL REPORTS     COLORADO/ARIZONA

CITY           SKY/WX    TMP DP  RH WIND       PRES   REMARKS
CRAIG, CO      CLEAR     41  39  93 CALM      30.04S
GRAND JUNCTION CLEAR     52  43  71 SE10      29.95S
RIFLE, CO      CLEAR     44  39  82 E3        30.02S
MONTROSE, CO   CLEAR     43  38  82 SE6       30.03R
CORTEZ, CO     CLEAR     44  29  55 E8        30.02R
COLORADO CITY    N/A     45  41  87 SE5       30.01R
PAGE, AZ       CLEAR     59  34  39 SW5       29.94S
GRAND CANYON   CLEAR     33  23  66 CALM      30.08S
KINGMAN, AZ    CLEAR     61  30  31 CALM      29.90S
FLAGSTAFF, AZ  CLEAR     38  18  44 CALM      30.09F

$$

REGIONAL REPORTS    NEVADA/IDAHO/WYOMING

CITY           SKY/WX    TMP DP  RH WIND       PRES   REMARKS
LAS VEGAS, NV  PTCLDY    74  36  25 CALM      29.79S
ELY, NY        LGT RAIN  47  43  86 SE7       30.00F
ELKO, NV       MOCLDY    47  44  90 CALM      29.93F
POCATELLO, ID  CLOUDY    53  51  93 N6        29.93S
BURLEY, ID     MOCLDY    54  47  77 CALM      29.89S
FORT BRIDGER,    N/A     44  43  99 S7        30.08S
EVANSTON, WY   CLOUDY    44  40  85 E5        30.04S
ROCK SPRINGS,  PTCLDY    42  39  89 CALM      30.04F
KEMMERER, WY   MOCLDY    41  37  87 N8        30.05F

$$



USA.gov is the U.S. government's official web portal to all federal, state and local government web resources and services.